Regional Weather Roundup
Issued by NWS

Home | Current Version | Previous Version | Text Only | Print | Product List | Glossary On
Versions: 1 2 3 4 5 6 7 8 9 10 11 12 13 14 15 16 17 18 19 20 21 22 23 24 25 26 27 28 29 30 31 32 33 34 35 36 37 38 39 40 41 42 43 44 45 46 47 48 49 50
000
ASCA44 KEWX 262020
RWRMX

LATIN AMERICA AND CARIBBEAN REGIONAL WEATHER ROUNDUP
NATIONAL WEATHER SERVICE AUSTIN/SAN ANTONIO TX
300 PM CDT TUE SEP 26 2017

NOTE: "FAIR" INDICATED FEW OR NO CLOUDS BELOW 12,000 FEET WITH NO
SIGNIFICANT WEATHER AND/OR OBSTRUCTIONS TO VISIBILITY.

BAJA CALIFORNIA

CITY           SKY/WX    TMP DP  RH WIND       PRES   REMARKS
LORETO         MOSUNNY   84  63  48 NE12      29.74F
LA PAZ         PTSUNNY   84  63  48 NW8       29.78F
MEXICALI       SUNNY     88  21   8 N6        29.77F
S.J. DEL CABO  DRZL/FOG  75  72  88 CALM      29.78F VSB 1
TIJUANA        SUNNY     82  39  21 NW12      29.83F

NORTHWESTERN MEXICO

CITY           SKY/WX    TMP DP  RH WIND       PRES   REMARKS
CULIACAN       CLOUDY    88  68  51 N6        29.73F HX  91
DURANGO        MOSUNNY   75  52  43 S3        30.02F
GUAYMAS        SUNNY     88  61  40 SW9       29.71F
HERMOSILLO     SUNNY     90  37  15 CALM      29.79F
CD. JUAREZ     MOSUNNY   81  48  32 E6        29.93F
LOS MOCHIS     MOSUNNY   91  50  24 W7        29.75F
OBREGON        SUNNY     91  43  18 S5        29.72F

NORTHEASTERN MEXICO

CITY           SKY/WX    TMP DP  RH WIND       PRES   REMARKS
CHIHUAHUA      PTSUNNY   82  55  39 CALM      29.93F
MATAMOROS      PTSUNNY   91  75  59 SE20      29.76F HX 102
MONCLOVA       PTSUNNY   81  63  54 NE18      29.82F
MONTERREY      PTSUNNY   84  70  61 S3        29.77F
NUEVO LAREDO   CLOUDY    81  77  89 CALM      29.76F
PIEDRAS NEGRAS CLOUDY    73  72  94 N7        29.85
REYNOSA        PTSUNNY   86  70  58 SE16G28   29.75F HX  90
SALTILLO       PTSUNNY   73  63  68 N9        30.00F
TORREON        PTSUNNY   88  63  42 CALM      29.86F
CD. VICTORIA   PTSUNNY   88  68  51 MISG      29.76F HX  91

WESTERN MEXICO

CITY           SKY/WX    TMP DP  RH WIND       PRES   REMARKS
AGUASCALIENTES PTSUNNY   73  57  56 S5        30.07F
COLIMA         PTSUNNY   77  72  83 W12       29.89F
DEL BAJIO      PTSUNNY   75  61  60 SE7       30.10F
GUADALAJARA    PTSUNNY   79  55  44 S5        30.00F
MANZANILLO     MOSUNNY   90  84  84 W17       29.73F HX 115
MAZATLAN       MOSUNNY   86  73  66 SW7       29.75F HX  93
P. VALLARTA    PTSUNNY   84  73  70 SW5       29.76F HX  91
URUAPAN        CLOUDY    72  64  78 S12       30.02F
ZACATECAS      PTSUNNY   73  57  56 W10       30.09F

CENTRAL MEXICO

CITY           SKY/WX    TMP DP  RH WIND       PRES   REMARKS
CUERNAVACA     PTSUNNY   79  68  69 SW8       29.94F
MEXICO CITY    PTSUNNY   75  54  46 NE6       30.11F
MORELIA        PTSUNNY   75  59  57 N5        30.03F
POZA RICA      MOSUNNY   90  77  66 E7        29.77F HX 102
PUEBLA         PTSUNNY   72  55  56 S8        30.13F
QUERETARO      PTSUNNY   75  61  60 S6        30.09F
S. LUIS POTOSI CLOUDY    66  57  72 SE12      30.06F
TAMPICO        PTSUNNY   88  79  74 E7        29.74F HX 102
TOLUCA         PTSUNNY   72  55  56 S13       30.17F

SOUTHERN MEXICO

CITY           SKY/WX    TMP DP  RH WIND       PRES   REMARKS
ACAPULCO       PTSUNNY   90  77  66 W8        29.73F HX 102
B. DE HUATULCO LGT RAIN N/A N/A N/A S9        29.77F
OAXACA         PTSUNNY   79  63  57 SE9       29.99F
P. ESCONDIDO   PTSUNNY   84  75  74 SW12      29.83F HX  92
VERACRUZ       MOSUNNY   91  77  62 E9        29.71F HX 105
ZIHUATANEJO    MOSUNNY   91  75  59 SW12      29.74F HX 102

YUCATAN PENINSULA

CITY           SKY/WX    TMP DP  RH WIND       PRES   REMARKS
CAMPECHE       MOSUNNY   91  81  70 E7        29.67F HX 110
CANCUN         PTSUNNY   88  79  74 SE9       29.78F HX 102
CHETUMAL       MOSUNNY   88  79  74 E16       29.71F HX 102
CD. DEL CARMEN MOSUNNY  N/A N/A N/A N12       29.68F
COZUMEL        MOSUNNY   84  75  74 S8        29.76F HX  92
MERIDA         PTSUNNY   91  73  55 E9        29.73F HX 100
MINATITLAN     PTSUNNY   91  81  70 S6        29.67F HX 110
TAPACHULA      PTSUNNY   84  75  74 E9        29.75F HX  92
TUX. GUTIERREZ CLOUDY    86  73  66 SE7       29.75F HX  93
VILLAHERMOSA   PTSUNNY   88  77  70 N9        29.69F HX 100

CENTRAL AMERICA

CITY           SKY/WX    TMP DP  RH WIND       PRES   REMARKS
BELIZE CITY    MOSUNNY   91  79  66 SE6       29.69F HX 107
MANAGUA        PTCLDY    88  73  62 W7        29.71F THUNDER HX  96

CARIBBEAN

CITY           SKY/WX    TMP DP  RH WIND       PRES   REMARKS
ARUBA          MOSUNNY   91  77  62 E18       29.80S HX 105
CURACAO        MOSUNNY   88  75  66 E16       29.83S HX  97
KINGSTON       LGT RAIN  84  73  70 E15       29.83F HX  91
NASSAU         LGT RAIN  81  77  89 CALM      29.91
SAN JUAN       MOSUNNY   90  79  70 NE16      29.92F HX 105
SANTO DOMINGO  LGT RAIN  79  75  89 SW12      29.92
ST. KITTS      MOSUNNY   84  79  84 E9        29.94S HX  96
ST. MAARTEN    MOSUNNY  N/A N/A N/A E6        29.92S

$$





USA.gov is the U.S. government's official web portal to all federal, state and local government web resources and services.